Home   Weather   Aberdeen   Past weeks
Flag for United Kingdom

Past Weather in Aberdeen, Scotland, United Kingdom — Yesterday and Last 2 Weeks

Now
46 °F

Cool.


Feels Like: 38 °F
Forecast: 52 / 45 °F
Wind: 22 mph from South

Location: Aberdeen / Dyce

Current Time: Apr 5, 2020 at 8:42:11 pm

Latest Report: Apr 5, 2020 at 7:50 pm


Visibility: N/A

Pressure: 29.62 "Hg

Humidity: 82%

Dew Point: 41 °F

Location of AberdeenLocation

Past Weather in Aberdeen — Graph

°F

Aberdeen Temperature Yesterday

Maximum temperature yesterday: 52 °F (at 2:20 pm)
Minimum temperature yesterday: 36 °F (at 12:20 am)
Average temperature yesterday: 44 °F

High & Low Weather Summary for the Past Weeks

 TemperatureHumidityPressure
High57 °F (Mar 24, 2:20 pm)100% (Mar 27, 6:20 am)30.92 "Hg (Mar 27, 6:20 am)
Low32 °F (Apr 3, 3:50 am)37% (Apr 2, 2:20 pm)29.56 "Hg (Apr 2, 7:50 am)
Average44 °F72%30.23 "Hg
* Reported Mar 21 6:20 pm — Apr 5 7:20 pm, Aberdeen. Weather by CustomWeather, © 2020

Note: Actual official high and low records may vary slightly from our data, if they occured in-between our weather recording intervals... More about our weather records

Aberdeen Weather History for the Previous 24 Hours

Scroll right to see more
 ConditionsComfort  
Time TempWeatherWind HumidityBarometerVisibility
7:20 pm
Sun, Apr 5
48 °FCool.21 mph76%29.65 "HgN/A
6:50 pm48 °FCool.24 mph76%29.65 "HgN/A
6:20 pm50 °FCool.22 mph71%29.65 "HgN/A
5:50 pm50 °FCool.22 mph71%29.68 "HgN/A
5:20 pm50 °FCool.16 mph71%29.68 "HgN/A
4:50 pm50 °FCool.17 mph71%29.71 "HgN/A
4:20 pm48 °FCool.17 mph71%29.71 "HgN/A
3:50 pm50 °FCool.22 mph67%29.74 "HgN/A
3:20 pm52 °FCool.23 mph62%29.77 "HgN/A
2:50 pm52 °FCool.23 mph62%29.77 "HgN/A
2:20 pm52 °FCool.23 mph62%29.77 "HgN/A
1:50 pm54 °FCool.26 mph58%29.80 "HgN/A
1:20 pm54 °FCool.30 mph58%29.80 "HgN/A
12:50 pm52 °FCool.25 mph62%29.80 "HgN/A
12:20 pm50 °FCool.25 mph67%29.80 "HgN/A
11:50 am50 °FCool.22 mph71%29.83 "HgN/A
11:20 am48 °FCool.22 mph71%29.83 "HgN/A
10:50 am48 °FCool.20 mph71%29.86 "HgN/A
10:20 am48 °FCool.22 mph71%29.86 "HgN/A
9:50 am46 °FCool.18 mph82%29.86 "HgN/A
9:20 am46 °FCool.15 mph82%29.86 "HgN/A
8:50 am46 °FCool.16 mph82%29.89 "HgN/A
8:20 am45 °FQuite cool.13 mph87%29.89 "HgN/A
7:50 am46 °FCool.16 mph76%29.89 "HgN/A
7:20 am45 °FQuite cool.15 mph87%29.89 "HgN/A
6:50 am43 °FQuite cool.7 mph87%29.89 "HgN/A
6:20 am43 °FQuite cool.10 mph87%29.89 "HgN/A
5:50 am43 °FQuite cool.3 mph87%29.89 "HgN/A
5:20 am45 °FQuite cool.5 mph81%29.89 "HgN/A
4:50 am45 °FQuite cool.6 mph81%29.89 "HgN/A
4:20 am45 °FQuite cool.6 mph81%29.89 "HgN/A
3:50 am46 °FCool.9 mph76%29.89 "HgN/A
3:20 am45 °FQuite cool.9 mph81%29.89 "HgN/A
2:50 am46 °FCool.18 mph82%29.89 "HgN/A
2:20 am46 °FCool.17 mph82%29.89 "HgN/A
1:50 am46 °FPassing clouds.14 mph82%29.89 "HgN/A
1:20 am48 °FMostly cloudy.14 mph76%29.92 "HgN/A
12:50 am48 °FPassing clouds.18 mph71%29.89 "HgN/A
12:20 am48 °FPassing clouds.10 mph71%29.92 "HgN/A
11:50 pm
Sat, Apr 4
46 °FPassing clouds.13 mph71%29.92 "HgN/A
11:20 pm46 °FPassing clouds.15 mph71%29.92 "HgN/A
10:50 pm46 °FPassing clouds.13 mph71%29.92 "HgN/A
10:20 pm46 °FCool.16 mph71%29.92 "HgN/A
9:50 pm46 °FCool.12 mph66%29.92 "HgN/A
9:20 pm46 °FClear.12 mph71%29.92 "Hg10 mi
8:50 pm46 °FCool.13 mph76%29.92 "HgN/A
8:20 pm46 °FCool.10 mph76%29.92 "HgN/A
Weather by CustomWeather, © 2020

See weather overview

Advertising